EHI
3 1 0 0 0 0 0 0 0 0 0 0 0 0 0 0 0 0 0 0 0 0 0 0 0 1 2 2 3 4 4 4 3 2 1 0 0 0 1 2 2 1 1 2 3 3 2 1 0
1 0 0 0 0 0 0 0 0 0 0 0 0 0 0 0 0 0 0 0 1 1 0 0 1 2 4 5 5 5 4 3 2 1 0 0 1 1 1 2 3 2 1 2 2 2 1 1 0
0 0 0 1 1 0 0 0 0 0 0 0 0 0 0 0 1 0 0 1 2 2 1 1 2 4 5 6 6 6 4 2 1 0 1 1 2 2 3 3 3 3 3 2 2 2 1 1 1
0 1 1 2 2 1 0 0 0 0 0 0 0 0 0 0 0 0 0 1 2 3 1 2 4 5 6 6 6 5 4 2 1 1 2 3 3 3 4 4 3 3 3 3 3 3 2 2 2
1 2 2 2 2 1 0 0 0 0 0 0 0 0 0 0 0 0 0 1 2 3 2 3 6 8 8 7 5 4 4 3 2 3 3 3 4 4 4 4 4 3 4 4 4 4 3 3 3
2 2 1 0 1 1 0 0 0 0 0 0 0 0 0 1 1 1 0 1 2 3 3 4 6 8 9 8 6 4 4 5 5 5 4 4 4 4 4 4 4 4 5 6 5 5 4 3 3
2 2 1 0 0 0 0 0 0 0 0 0 0 0 0 2 2 1 0 0 1 2 2 3 4 4 5 6 6 5 5 5 6 5 4 4 4 4 4 5 6 6 6 6 6 5 4 3 4
1 1 0 0 0 0 0 0 0 0 0 0 0 0 0 2 2 1 0 0 0 1 1 1 1 1 1 2 2 3 4 4 4 4 4 4 4 4 5 6 6 6 6 6 6 5 4 5 6
0 0 0 0 0 0 0 0 1 1 0 0 1 1 2 4 4 2 0 0 0 0 0 0 0 0 0 0 0 1 2 3 2 2 3 3 3 2 2 4 6 6 6 6 6 6 6 6 7
1 1 1 0 0 0 0 1 2 2 1 1 3 5 7 6 6 4 1 0 0 0 0 0 0 0 0 0 0 0 1 1 1 1 1 1 1 0 0 2 3 5 5 6 6 7 7 7 7
3 2 1 0 0 0 0 1 2 4 3 2 6 10 10 9 7 6 2 0 0 0 0 0 0 0 0 0 0 0 0 0 0 0 0 0 0 0 0 0 1 2 3 4 4 4 4 5 5
3 2 2 1 0 0 0 0 1 3 3 4 8 11 12 10 8 7 3 1 0 0 0 0 0 0 0 0 0 0 0 0 0 0 0 0 0 0 0 0 0 1 2 3 3 3 2 2 2
2 1 1 1 0 0 0 0 0 1 4 7 10 12 11 8 7 5 3 1 0 0 0 0 0 1 0 0 0 0 0 0 0 0 0 0 0 0 0 0 0 1 2 3 3 3 2 1 0
1 0 0 0 0 0 0 0 0 2 5 9 11 12 10 5 2 2 1 1 0 0 0 0 0 0 0 0 0 0 0 0 0 0 0 0 0 0 0 0 0 1 2 2 2 3 2 1 1
0 0 0 0 0 0 0 0 0 2 7 10 11 12 9 3 0 0 0 0 0 0 0 0 0 0 0 0 0 0 0 0 0 0 0 0 0 0 0 0 0 0 1 1 1 1 2 2 2
0 0 0 0 0 0 0 0 0 2 6 8 9 9 7 3 0 0 0 0 0 0 0 0 0 0 0 0 0 0 0 0 0 0 0 0 0 0 0 0 0 0 0 0 0 0 1 1 1
0 0 0 0 0 0 0 0 1 2 4 5 6 7 6 4 1 1 1 1 1 0 0 0 0 0 0 0 0 0 0 0 0 0 0 0 0 0 0 0 0 0 0 0 0 0 0 1 1
0 0 1 1 1 1 1 0 1 2 3 4 5 6 7 6 3 2 1 2 1 1 1 0 0 0 1 2 1 0 0 0 0 0 0 0 0 0 0 0 0 0 0 0 0 1 1 2 2
0 1 2 2 2 2 1 0 0 1 2 3 4 6 8 7 5 3 3 3 4 3 2 1 1 2 3 4 3 1 0 0 0 0 0 0 0 0 0 0 0 0 0 0 1 2 3 3 3
1 1 2 3 3 1 0 0 0 0 1 1 2 5 7 7 6 4 4 5 6 5 5 3 3 4 5 5 4 1 0 0 0 0 1 1 0 0 0 0 1 1 1 1 1 3 3 4 4
0 1 1 2 2 1 0 0 0 0 0 0 1 4 7 7 6 5 5 6 6 6 6 5 4 4 5 5 4 2 0 0 0 1 2 2 1 0 0 1 2 2 2 2 3 3 4 6 6
0 0 0 1 1 0 0 0 0 0 0 1 2 5 7 7 6 4 3 5 6 6 6 5 4 3 3 3 4 2 1 0 0 1 2 3 2 1 0 1 3 3 3 3 3 3 4 7 8
0 0 0 0 0 0 0 0 0 0 0 2 4 5 7 7 5 2 2 5 7 7 8 7 5 3 2 3 3 2 1 0 1 2 2 3 3 2 1 1 2 2 3 3 3 3 4 5 6
0 0 0 0 0 0 0 0 0 0 1 3 6 5 5 6 4 1 2 5 7 9 13 14 10 6 5 4 4 2 0 0 1 2 2 2 2 2 1 1 1 1 2 3 3 2 2 3 4
0 0 0 0 0 0 0 0 0 1 1 4 5 4 4 4 3 3 4 5 5 9 15 18 15 10 9 8 5 3 1 1 2 2 3 2 1 1 2 1 0 1 2 2 1 1 1 2 3
0 0 0 0 0 0 0 0 1 2 2 2 3 3 3 3 2 3 4 4 4 6 12 15 14 12 10 9 7 5 3 4 4 4 3 2 1 1 2 2 1 1 2 1 0 0 1 2 3
0 0 0 0 0 0 0 0 1 2 2 1 2 4 4 3 2 3 3 3 3 4 8 11 11 11 10 9 8 7 6 6 5 4 2 1 0 1 2 3 3 2 1 0 0 0 1 4 5
0 0 0 0 0 0 0 0 1 2 2 1 1 4 5 4 3 2 1 1 2 4 6 9 10 11 10 9 9 8 7 6 3 1 0 0 1 1 2 3 4 3 1 0 1 1 2 5 7
0 0 0 0 0 0 0 0 1 2 2 1 2 4 6 5 4 2 1 0 1 3 6 8 10 11 10 9 7 6 5 4 3 1 1 1 1 2 2 3 3 3 2 1 1 2 3 6 8
0 0 0 0 0 0 0 0 1 2 2 1 2 5 6 6 4 2 1 0 0 2 5 8 10 11 11 9 6 4 3 3 3 2 2 1 1 1 1 2 3 3 3 1 1 1 2 5 7
Wind_Speed
6 4 2 1 1 3 2 3 1 1 2 1 3 5 5 3 2 2 0 5 6 5 3 6 8 8 8 8 9 9 10 10 10 10 9 10 10 9 9 9 8 8 7 7 7 6 6 7 7
4 4 2 1 3 2 3 2 1 0 2 3 4 4 5 3 2 4 2 4 7 6 3 4 8 8 8 8 9 9 9 9 9 9 8 8 8 8 8 8 8 7 7 7 6 6 6 6 6
5 3 1 2 2 1 2 1 1 2 2 2 3 4 4 2 3 4 3 7 7 5 3 4 9 8 8 8 8 8 8 8 8 8 8 7 7 7 8 8 7 7 7 6 6 6 6 5 5
3 1 2 3 2 2 2 1 2 3 2 4 4 4 3 2 3 4 7 8 7 4 3 4 8 8 8 8 8 7 7 7 7 7 6 6 6 7 7 7 7 6 6 6 6 5 5 5 5
1 2 3 3 3 2 1 1 2 2 2 3 4 4 3 3 6 8 8 7 6 4 2 3 7 7 8 7 7 7 7 7 6 6 5 5 5 5 7 7 7 6 6 5 5 5 5 5 5
2 3 3 2 3 2 1 1 2 4 3 3 4 3 2 2 6 7 6 6 5 4 2 2 6 7 7 7 7 6 6 6 5 5 4 4 4 5 5 6 6 6 6 5 5 5 5 5 5
2 3 1 1 2 2 1 2 3 3 3 2 4 4 1 2 4 6 6 5 4 3 2 1 1 3 5 6 6 6 6 5 4 4 3 3 3 4 4 5 5 5 6 6 6 5 6 6 5
2 3 1 1 1 2 1 2 2 3 2 3 3 5 3 3 6 6 6 5 3 2 1 1 1 0 1 2 5 6 5 5 4 3 3 2 2 3 3 3 3 4 5 5 6 6 6 6 5
2 3 1 2 2 1 1 2 1 2 4 2 2 3 5 10 9 7 5 3 2 2 1 1 1 1 1 1 3 3 4 4 3 1 1 1 1 1 0 2 3 3 4 5 6 6 6 5 5
3 2 4 4 4 3 1 2 2 3 2 2 4 5 9 10 9 7 6 5 4 4 3 2 2 1 1 2 1 1 1 1 1 1 1 1 1 1 1 2 3 3 3 4 5 5 5 3 1
3 4 3 3 3 3 2 1 2 5 2 4 6 9 9 9 7 7 6 5 5 4 3 3 3 2 2 1 1 1 0 0 0 0 0 0 0 1 1 1 2 2 2 1 2 2 1 1 1
3 4 4 3 2 2 2 2 2 3 4 4 9 11 10 9 8 8 7 6 4 4 4 3 3 2 2 1 1 1 1 0 1 1 1 1 0 0 1 1 1 1 1 1 1 1 1 2 2
3 3 1 2 1 2 3 1 2 1 2 7 9 9 8 8 6 5 4 4 4 5 4 4 3 3 2 2 1 1 1 1 1 1 1 1 1 1 1 1 1 1 1 1 1 1 2 2 2
2 0 1 1 2 2 4 1 2 0 6 9 9 8 7 7 6 4 4 4 4 5 4 4 4 4 3 3 2 1 1 1 1 1 1 1 1 1 1 1 1 1 1 1 1 2 1 1 2
1 3 4 2 1 1 4 3 0 1 6 7 7 7 6 5 5 6 6 5 5 4 3 4 4 4 4 3 3 2 1 1 1 1 1 2 2 1 1 1 1 1 1 1 1 1 1 1 1
3 4 2 3 1 2 4 2 1 4 6 6 5 5 5 4 5 5 5 4 4 4 3 3 3 4 4 3 2 1 1 1 1 1 1 1 1 2 1 1 1 1 1 1 1 1 1 1 1
4 1 2 3 0 2 2 3 1 4 6 5 4 4 4 3 3 3 4 5 5 5 4 3 3 4 4 3 2 1 1 1 0 0 0 0 0 1 1 1 1 1 1 1 1 0 0 1 1
2 2 2 3 2 2 2 3 2 4 6 6 5 4 4 4 5 4 4 4 4 4 4 3 3 2 3 3 2 1 1 1 0 0 1 0 0 0 0 0 1 0 0 1 1 1 0 1 1
3 2 3 4 2 2 2 3 2 4 4 4 4 4 4 5 4 3 4 4 4 3 3 4 4 3 3 2 2 1 0 0 1 1 1 1 0 0 0 0 0 0 0 1 1 0 0 1 1
2 1 2 3 1 2 1 1 1 4 5 6 6 5 5 4 2 3 4 4 5 4 4 3 3 3 3 2 2 2 1 1 0 1 1 1 0 0 0 0 0 0 0 0 1 0 0 1 0
2 4 4 2 2 3 2 3 1 1 2 2 3 3 3 5 5 5 5 5 5 5 5 5 4 4 3 3 2 2 2 1 1 1 1 1 1 0 0 0 0 0 0 0 0 0 1 0 0
3 3 4 3 2 2 1 2 5 2 2 3 4 3 4 4 5 5 5 5 6 6 5 4 4 4 4 4 3 3 2 1 1 1 1 1 1 1 0 0 0 0 0 0 1 0 1 1 0
3 2 3 3 3 2 2 1 7 0 3 5 5 5 4 4 5 5 5 6 5 5 5 4 4 3 3 4 4 4 2 1 1 0 1 1 2 1 1 0 0 0 0 1 1 0 1 1 1
3 6 6 5 5 1 2 2 7 3 5 4 5 6 5 5 4 4 4 4 3 3 4 4 5 3 3 4 3 4 4 2 1 0 1 1 1 2 2 1 0 1 1 1 1 1 1 1 1
4 6 4 5 4 4 1 2 8 5 4 5 6 6 5 5 5 5 5 5 5 5 4 4 5 4 3 4 4 4 4 3 3 2 1 0 1 1 2 1 1 1 1 1 1 1 1 1 1
2 7 7 5 4 4 2 4 7 4 2 3 4 4 4 3 4 6 6 6 5 5 5 5 5 4 4 4 3 3 3 2 2 2 2 1 1 1 1 1 1 1 1 1 0 1 1 1 1
4 2 5 7 2 0 4 6 7 1 1 0 1 2 3 4 4 5 5 5 5 5 5 5 5 4 4 4 3 2 2 2 2 1 1 1 1 1 1 1 1 1 1 1 0 0 1 1 1
4 7 5 5 5 2 4 4 5 5 4 1 2 3 2 2 2 3 3 4 4 4 4 4 4 4 3 3 3 3 2 2 2 1 1 1 1 1 0 1 1 1 1 1 0 1 1 1 1
3 4 5 4 5 6 3 6 5 5 4 4 5 4 3 3 3 3 3 3 3 3 4 4 3 3 3 3 3 2 2 2 2 2 2 2 1 1 1 1 1 1 1 1 1 1 1 1 2
3 4 6 4 3 4 4 8 4 2 3 3 3 2 2 2 2 2 3 3 3 3 3 4 3 3 3 3 3 2 1 1 1 1 2 1 1 1 1 1 1 1 1 1 1 2 2 1 2
Wind_Direction
178 164 152 177 50 41 333 311 320 10 28 31 76 87 103 99 129 150 126 132 128 132 141 149 144 138 133 127 126 128 131 133 136 134 135 138 141 144 145 145 146 145 145 144 143 146 151 152 152
157 162 179 46 64 35 316 314 32 81 141 125 75 73 76 69 69 109 122 136 128 133 135 147 145 139 135 132 130 132 133 135 136 136 135 138 142 146 151 152 153 150 150 149 150 152 152 152 157
170 189 80 53 62 176 281 324 95 86 106 91 75 60 77 95 121 141 151 134 124 129 134 160 147 146 142 138 136 135 136 137 135 138 139 142 145 149 153 154 154 156 158 158 157 159 158 160 164
171 119 55 56 356 262 240 249 119 113 62 49 89 69 58 53 136 137 131 130 128 132 140 164 149 152 151 145 144 142 142 141 140 142 145 148 152 156 158 158 160 161 164 167 167 166 167 170 176
104 82 52 24 327 303 269 179 141 95 70 59 86 88 47 27 92 116 126 130 134 137 146 165 152 156 157 153 151 151 150 149 148 149 153 158 162 166 166 166 169 171 175 177 178 179 185 186 188
67 67 61 5 333 332 349 121 105 82 83 82 90 92 52 74 107 125 125 123 128 135 140 151 158 159 161 160 157 153 151 149 150 152 159 168 172 174 172 173 175 178 183 187 191 194 200 203 204
97 82 91 271 313 330 75 93 97 104 95 114 117 101 85 105 121 122 111 110 112 118 115 106 144 164 170 170 168 166 164 159 156 155 163 167 168 169 176 186 190 192 197 200 206 209 212 215 218
129 93 36 286 253 290 133 97 99 117 115 117 115 133 170 166 127 109 97 98 108 112 108 104 87 96 156 177 176 178 176 167 168 167 170 171 167 165 179 198 216 219 219 216 218 222 225 223 225
121 71 253 230 206 243 132 101 85 84 108 101 95 132 145 131 124 115 108 104 134 159 157 171 179 188 196 204 190 178 173 165 167 175 177 134 42 19 229 233 236 244 241 238 236 235 240 235 229
108 142 231 224 194 186 187 138 145 100 94 89 82 89 117 129 138 145 156 167 180 191 195 194 200 201 200 210 171 110 130 112 111 54 18 40 45 313 294 270 260 261 255 254 257 255 253 249 241
163 204 234 249 211 171 157 150 136 132 178 191 157 143 140 144 151 164 176 184 191 191 193 191 200 203 194 195 151 120 89 83 73 58 286 103 53 319 322 323 301 297 292 291 285 290 276 260 241
193 241 225 245 182 143 154 138 115 163 211 168 149 146 148 158 172 182 187 191 185 182 198 198 191 192 199 190 179 161 160 179 212 242 220 157 153 303 303 306 303 308 306 301 288 269 262 262 250
217 264 244 199 137 131 108 127 141 195 116 114 124 136 154 166 179 185 188 186 181 189 203 201 192 194 196 190 205 183 197 215 215 221 224 180 184 248 280 294 294 295 285 263 263 262 264 269 265
204 209 3 34 103 129 123 88 94 236 122 122 134 150 164 174 175 171 176 182 185 194 200 194 194 198 192 191 200 201 202 213 197 198 220 192 191 209 249 293 308 305 298 279 264 259 257 268 268
83 47 5 4 85 120 100 16 5 152 129 133 150 161 171 182 178 184 188 188 187 188 189 191 193 190 189 192 197 193 194 193 211 220 215 201 196 199 213 249 289 299 307 308 303 306 305 283 276
40 51 355 302 91 110 109 259 266 132 136 147 159 167 176 193 194 193 184 176 173 170 169 185 185 172 176 178 183 181 185 180 213 245 229 219 204 192 190 224 279 304 324 326 307 303 320 304 295
25 40 266 295 222 129 134 240 234 143 146 165 171 177 184 199 208 191 182 177 172 168 164 167 168 161 165 162 151 146 135 138 181 206 239 261 225 177 167 232 292 345 345 324 292 294 234 285 294
251 262 267 262 242 131 178 235 195 159 161 180 185 188 191 206 216 192 179 173 167 163 158 157 156 153 145 132 117 97 66 7 345 334 311 317 334 98 115 304 344 51 10 333 316 293 276 251 288
198 216 263 267 230 140 218 242 207 173 170 189 200 203 210 221 214 171 165 161 153 156 154 161 156 155 135 128 136 135 166 283 309 296 305 304 332 30 116 325 14 83 148 267 301 292 327 322 343
181 211 262 304 60 140 193 287 200 179 201 203 202 209 214 217 197 173 166 166 166 172 170 169 167 163 157 150 140 139 140 177 225 321 344 333 332 312 218 185 211 151 173 15 11 27 350 328 21
231 195 217 208 32 51 70 335 277 215 224 211 209 210 213 201 195 185 176 178 173 179 181 185 179 170 160 146 111 94 72 40 21 0 337 323 329 285 256 209 187 202 159 210 267 167 168 226 322
266 226 182 155 94 324 57 280 282 237 244 222 227 213 209 208 196 187 186 185 186 192 182 175 169 167 158 145 141 138 142 179 240 258 299 335 354 340 316 77 185 193 154 230 264 171 206 179 253
215 98 105 101 111 46 13 172 286 308 250 239 225 216 215 204 189 190 195 194 187 181 172 166 156 161 159 153 160 152 165 195 233 45 18 352 352 345 347 63 67 33 259 269 292 292 217 199 199
134 72 56 49 68 7 264 175 279 245 228 237 221 216 211 197 189 188 181 163 156 146 154 156 149 162 164 161 163 164 172 174 153 90 21 349 347 339 341 354 348 291 283 272 262 252 241 232 216
98 91 38 3 10 260 273 208 254 261 233 215 211 210 205 192 186 187 180 169 165 155 157 156 153 165 169 167 171 173 176 176 192 198 191 272 326 318 316 318 299 289 279 268 257 254 270 257 235
172 140 157 192 220 272 321 243 260 277 263 210 193 185 183 186 184 186 185 181 177 171 164 163 164 172 172 175 181 174 171 180 201 193 187 199 222 255 284 302 295 289 290 288 253 249 265 280 260
139 154 155 130 133 319 286 289 303 311 332 72 152 153 175 193 184 185 179 180 179 177 175 177 169 172 178 179 169 163 172 185 198 200 193 203 225 241 315 311 308 305 300 292 229 262 279 276 269
121 138 99 113 138 239 289 281 268 281 270 260 211 210 202 186 184 184 178 174 177 179 170 161 166 178 181 176 179 174 178 195 205 190 204 230 256 269 282 295 294 306 313 303 256 277 292 295 293
77 85 98 110 145 155 233 267 239 235 232 216 219 208 186 179 183 188 182 182 170 150 149 158 165 163 165 171 172 170 176 186 185 193 213 215 227 230 224 238 255 290 310 307 287 292 312 298 307
151 155 144 150 204 168 177 261 296 251 232 207 217 195 179 177 181 186 177 171 160 155 157 164 169 168 177 172 167 180 189 176 182 222 237 214 220 227 220 217 226 256 278 290 276 280 294 289 297